Location: ????????
(42.1928°N, 43.3417°E)
Time: 06:12:45
(UTC+00:00)

Daily predictions for brighter satellites

Satellite Brightness Start Highest point End
(mag) Time Altitude Azimuth Time Altitude Azimuth Time Altitude Azimuth
CZ-2C R/B 3.0 16:28:20 10° NNE 16:33:17 43° E 16:38:16 10° S
Cosmos 2360 4.4 16:31:51 10° NNW 16:37:33 63° ENE 16:43:13 10° SE
SL-16 R/B 4.0 16:34:27 10° N 16:37:56 16° NE 16:41:23 10° E
Cosmos 1707 Rocket 4.0 16:36:18 10° N 16:40:26 42° ENE 16:44:33 10° SSE
Cosmos 2082 Rocket 2.2 16:39:24 10° SSW 16:45:04 74° ESE 16:50:45 10° NNE
MetOp-A 4.3 16:42:14 10° SSE 16:47:27 56° ENE 16:52:41 10° N
SL-4 R/B 3.9 16:45:45 10° W 16:49:23 29° NNW 16:52:47 10° NE
Cosmos 2369 3.8 16:45:09 10° NNW 16:50:55 88° WSW 16:56:38 10° SSE
Sich 1 3.0 16:47:52 10° S 16:52:18 84° E 16:56:46 10° N
ATLAS 3B R/B 4.0 16:51:22 10° SE 16:54:44 15° ESE 16:58:05 10° ENE
Cosmos 2322 Rocket 3.9 16:51:39 10° N 16:55:29 18° NE 16:59:17 10° E
Cosmos 2278 3.8 16:51:31 10° NNW 16:57:14 71° ENE 17:02:54 10° SSE
H-2A R/B 3.2 16:52:23 10° S 16:57:14 44° W 17:02:01 10° NNW
ATLAS 5 CENTAUR R/B 4.2 16:53:44 10° WNW 16:58:55 30° WSW 17:04:40 10° S
MONITOR-E 3.6 17:00:19 13° SSE 17:02:16 53° ENE 17:04:34 10° N
Cosmos 676 Rocket 4.0 16:58:35 10° S 17:03:52 73° ESE 17:09:12 10° NNE
MOS 1 4.4 16:58:39 10° SSE 17:04:18 86° WSW 17:10:00 10° NNW
Cosmos 2360 Rocket 4.3 17:02:06 10° NNE 17:04:21 12° NE 17:06:36 10° ENE
Cosmos 1934 Rocket 4.1 16:59:49 10° S 17:06:03 60° E 17:12:18 10° NNE
USA 186 3.0 17:06:11 10° SSW 17:08:09 27° W 17:10:09 10° NW
Cosmos 1862 Rocket 4.1 17:04:00 10° N 17:08:13 41° ENE 17:11:38 14° SE
Cosmos 389 Rocket 4.3 17:06:08 10° NNW 17:09:15 32° W 17:12:24 10° SSW
Meteor 1-4 Rocket 2.4 17:06:55 10° N 17:10:22 66° E 17:13:26 13° SSE
Cosmos 1238 Rocket 3.4 17:12:52 21° ESE 17:13:27 22° E 17:15:52 10° NE
Cosmos 1980 Rocket 2.2 17:08:35 10° NNW 17:14:18 86° ENE 17:19:31 12° SSE
Genesis I 3.7 17:12:49 10° NW 17:16:37 55° WSW 17:19:53 13° SSE
USA 238 DEB 3.7 17:11:47 10° SW 17:18:23 89° WNW 17:25:17 10° NE
USA 238 3.7 17:11:53 10° SW 17:18:30 89° NW 17:25:23 10° NE
Lacrosse 5 2.4 17:15:07 10° NW 17:20:02 48° NE 17:23:28 19° ESE
Intercosmos 25 3.7 17:17:16 10° NNW 17:20:42 52° W 17:23:47 10° S
Cosmos 1833 Rocket 4.5 17:15:48 10° WSW 17:20:55 35° WNW 17:26:04 10° N
CZ-2C R/B 3.6 17:16:47 10° NNE 17:21:22 71° ESE 17:25:48 10° S
CENTAUR R/B 2.4 17:16:37 10° SSW 17:22:15 61° ESE 17:28:55 10° NE
Resurs 01 Rocket 1.8 17:19:47 17° SE 17:23:00 54° ENE 17:27:19 10° N
USA 276 3.9 17:20:36 10° NW 17:23:21 26° NNE 17:25:28 14° ENE
X-37B 1.0 17:20:56 10° WNW 17:24:03 56° N 17:25:51 22° E
SPOT 3 Rocket 3.5 17:19:41 11° SSE 17:24:48 81° ENE 17:30:00 10° NNW
Cosmos 1697 Rocket 3.9 17:21:18 10° NW 17:26:31 40° WSW 17:31:41 10° S
Cosmos 1602 4.4 17:27:29 24° SE 17:29:14 36° E 17:32:52 10° NNE
Meteor 1-20 Rocket 4.3 17:24:47 10° S 17:30:31 65° E 17:36:19 10° NNE
GP-B 3.4 17:26:52 10° NNE 17:31:10 46° E 17:33:42 22° SSE
Cosmos 1933 Rocket 3.9 17:28:49 18° SSE 17:31:44 44° E 17:35:58 10° NNE
Cosmos 1954 Rocket 4.5 17:26:51 10° SSW 17:32:08 66° WNW 17:37:27 10° NNE
Cosmos 1666 Rocket 4.3 17:28:00 10° SSW 17:32:13 54° W 17:36:29 10° N
Spot 2 Rocket 4.3 17:30:54 22° ESE 17:33:23 35° ENE 17:37:58 10° N
Cosmos 1741 Rocket 4.1 17:34:46 10° S 17:39:51 55° ESE 17:45:01 10° NNE
Cosmos 405 Rocket 2.5 17:39:54 23° S 17:42:05 64° E 17:45:49 10° NNE
Okean 1-7 3.8 17:43:29 10° N 17:47:23 33° ENE 17:48:08 31° E
Cosmos 2333 Rocket 4.4 17:46:15 10° NNE 17:48:18 12° NE 17:50:20 10° ENE
Cosmos 1515 4.4 17:45:55 10° N 17:49:27 34° ENE 17:49:46 34° E
Cosmos 1763 Rocket 3.6 17:45:35 10° NNW 17:50:52 60° ENE 17:53:10 32° SE
Resurs 1-3 4.5 17:48:14 12° S 17:52:07 47° W 17:56:22 10° NNW
Cosmos 1437 Rocket 3.0 17:52:34 10° N 17:56:12 44° ENE 17:56:31 43° E
Cosmos 1703 Rocket 3.8 17:52:57 10° N 17:57:09 47° ENE 17:58:00 41° ESE
Cosmos 2084 Rocket 3.7 17:54:21 10° SW 17:58:30 67° NW 18:02:46 10° NNE
OBJECT-B 2.9 17:56:28 11° SSW 17:59:02 25° W 18:01:49 10° NW
Landsat 7 3.9 17:57:34 37° SE 17:59:14 60° ENE 18:03:56 10° N
SPOT 5 3.9 17:59:11 25° ENE 17:59:37 25° ENE 18:03:13 10° NNE
H-2A R/B 3.3 17:55:30 10° NNE 17:59:39 81° ESE 18:01:50 27° S
MetOp-B 4.1 17:59:30 29° SSE 18:02:20 86° ENE 18:07:45 10° NNW
USA 245 4.5 17:59:45 29° SSE 18:03:16 72° ENE 18:09:18 10° N
Cosmos 1605 Rocket 4.1 18:00:09 10° SSW 18:06:14 74° W 18:12:21 10° N
Cosmos 921 Rocket 3.7 18:02:18 10° NNW 18:06:21 48° WSW 18:08:16 27° SSW
Cosmos 2100 Rocket 4.2 18:07:33 36° SE 18:09:30 47° E 18:15:20 10° NNE
Meteor 1-19 Rocket 4.0 18:04:55 10° N 18:10:23 79° E 18:12:35 38° SSE
USA 267 3.1 18:04:04 10° NE 18:10:35 67° SE 18:17:05 10° SW
Cosmos 2173 Rocket 4.2 18:12:01 38° SE 18:13:43 47° E 18:19:31 10° NNE
Cosmos 2219 Rocket 4.1 18:15:33 10° N 18:19:08 17° NE 18:20:59 15° ENE
Meteor 2-4 Rocket 3.8 18:13:51 10° N 18:19:20 56° ENE 18:20:30 47° ESE
NOSS 3-2 (C) 4.1 18:13:50 10° SW 18:19:23 54° NW 18:25:46 10° NNE
Okean 1 3.6 18:15:34 10° NNW 18:19:36 66° W 18:20:29 49° SSW
Lacrosse 4 Rocket 3.6 18:25:08 14° NE 18:25:08 14° NE 18:25:53 10° NE
SL-16 R/B 2.1 18:17:09 10° NNW 18:22:51 90° NW 18:24:36 47° SSE
Cosmos 540 Rocket 3.6 18:18:51 10° NNW 18:23:58 59° ENE 18:24:50 51° ESE
Cosmos 1459 Rocket 4.0 18:24:48 43° SSE 18:26:43 60° E 18:32:58 10° NNE
SL-4 R/B 4.2 18:27:00 10° NW 18:29:52 19° N 18:31:51 13° NE
Cosmos 2242 Rocket 4.2 18:26:06 10° NNW 18:30:23 51° W 18:31:38 38° SW
SL-27 R/B 3.6 18:31:00 35° W 18:31:35 39° WNW 18:34:43 10° N
Cosmos 2016 Rocket 4.3 18:33:08 44° ESE 18:33:54 47° E 18:39:58 10° NNE
Cosmos 1833 4.4 18:34:22 49° E 18:34:22 49° E 18:39:33 10° NE
ERS-1 Rocket 2.8 18:36:14 65° ESE 18:36:48 73° ENE 18:41:49 10° N
Meteor 1-13 Rocket 4.4 18:32:43 10° N 18:38:06 50° ENE 18:38:29 49° E
Cosmos 2322 Rocket 2.2 18:34:30 10° NNW 18:40:14 81° WSW 18:41:25 57° S
Cosmos 967 Rocket 4.4 18:34:51 10° NNW 18:41:14 78° ENE 18:42:40 55° SE
SPOT 1/Viking Rocket 3.8 18:42:54 49° SSW 18:44:09 65° WSW 18:49:22 10° NNW
ATLAS 3B R/B 2.5 18:37:47 10° SSW 18:44:23 85° SE 18:51:04 10° NE
USA 234 3.9 18:41:40 29° E 18:44:41 48° NNE 18:50:53 10° NW
BREEZE-M TANK 4.1 18:37:29 10° SW 18:45:06 39° SSW 18:45:06 39° SSW
Terra 2.0 18:49:02 58° ENE 18:49:02 58° ENE 18:53:28 10° N
Cosmos 841 Rocket 3.4 18:44:05 10° NNW 18:49:21 81° WSW 18:49:50 72° SSW
Cosmos 2360 Rocket 2.2 18:43:51 10° NNW 18:49:30 66° ENE 18:50:02 62° E
Cosmos 1500 4.0 18:50:45 48° NNW 18:50:45 48° NNW 18:53:43 10° N
Cosmos 2221 Rocket 4.2 18:47:03 10° N 18:50:40 47° NE 18:50:40 47° NE
Cosmos 2237 4.0 18:47:43 10° NNW 18:53:26 78° ENE 18:53:58 71° ESE
Okean 3 4.0 18:52:07 10° N 18:55:36 56° N 18:55:36 56° N
Iridium 4 Rocket 3.6 18:58:58 52° N 18:58:58 52° N 19:02:08 10° N
Resurs 01 Rocket 4.2 18:57:24 10° SW 18:59:49 14° W 19:02:13 10° WNW
X-37B 3.6 18:57:38 10° W 18:58:07 13° W 18:58:07 13° W
Cosmos 1666 4.5 19:02:45 26° NNE 19:02:45 26° NNE 19:04:30 10° NNE
Cosmos 44 3.8 18:57:19 10° NW 19:02:11 52° WSW 19:02:11 52° WSW
Lacrosse 5 3.0 18:58:21 10° WNW 19:02:39 32° WSW 19:02:39 32° WSW
CARTOSAT-1 4.1 19:03:24 54° WNW 19:03:24 54° WNW 19:07:15 10° NNW
Cosmos 2061 Rocket 3.8 19:05:49 71° SSE 19:06:29 82° E 19:12:42 10° N
Cosmos 1802 Rocket 4.1 19:10:10 55° SSW 19:11:38 77° W 19:18:00 10° N
CENTAUR R/B 4.3 19:08:00 10° W 19:13:25 31° NW 19:19:42 10° NNE
COSMOS 2428 3.6 19:10:25 10° N 19:15:43 37° ENE 19:15:48 37° ENE
Cosmos 1814 Rocket 4.4 19:11:42 10° NNW 19:16:43 57° W 19:16:43 57° W
Cosmos 2237 Rocket 4.1 19:16:21 10° N 19:20:02 17° NE 19:20:58 17° ENE
Cosmos 1816 Rocket 4.3 19:18:03 10° N 19:24:19 84° E 19:24:23 84° ESE
Cosmos 44 Rocket 4.4 19:21:23 10° NNW 19:25:33 39° NNE 19:25:33 39° NNE
Cosmos 2333 Rocket 2.5 19:28:07 10° NNW 19:33:20 59° NE 19:33:20 59° NE
SPOT 5 4.3 19:38:25 27° WNW 19:38:25 27° WNW 19:41:27 10° NW
Cosmos 1066 Rocket 4.4 19:34:39 10° NNW 19:39:35 68° NNW 19:39:35 68° NNW
USA 267 4.3 19:47:16 10° NE 19:53:23 44° NNW 19:59:30 10° W
Tsikada Rocket 4.1 19:47:50 10° NNW 19:53:56 65° W 19:53:56 65° W
Cosmos 2227 Rocket 4.4 19:58:23 14° ENE 19:58:23 14° ENE 19:59:25 10° NE
Cosmos 968 Rocket 4.3 19:57:27 46° N 19:57:27 46° N 20:01:12 10° NNE
Lacrosse 4 Rocket 3.6 20:01:22 24° NW 20:01:22 24° NW 20:04:18 10° N
Cosmos 2219 Rocket 2.7 19:58:09 10° NNW 20:02:41 58° NNW 20:02:41 58° NNW
BREEZE-M DEB (TANK) 4.3 20:05:56 10° WNW 20:10:40 72° NNE 20:31:47 10° ESE
Terra 4.3 20:27:56 14° WNW 20:27:56 14° WNW 20:29:34 10° WNW
USA 234 3.7 20:29:00 49° W 20:29:00 49° W 20:34:02 10° NW
Cosmos 2360 Rocket 4.3 20:29:16 10° WNW 20:31:48 17° W 20:31:48 17° W
SL-16 R/B 3.9 20:31:04 10° N 20:35:39 24° NE 20:35:50 24° NE
Cosmos 2297 Rocket 3.4 20:50:25 36° NE 20:50:25 36° NE 20:53:44 10° NNE
Timation 2 Rocket 4.4 20:54:54 54° NNW 20:54:54 54° NNW 20:59:47 10° NNE
COSMOS 2428 4.3 20:54:48 10° NW 20:57:48 26° WNW 20:57:48 26° WNW
Cosmos 1464 Rocket 4.5 21:01:30 55° NNW 21:01:30 55° NNW 21:06:32 10° N
Cosmos 2219 4.2 21:04:37 43° NNE 21:04:37 43° NNE 21:08:23 10° NNE
Cosmos 2237 Rocket 3.2 20:59:09 10° NNW 21:02:46 41° NNW 21:02:46 41° NNW
SJ 16-02 4.0 21:10:39 14° NE 21:10:39 14° NE 21:11:28 10° NE
Nadezhda 4 Rocket 4.4 21:05:28 10° N 21:10:23 57° NNW 21:10:23 57° NNW
Cosmos 2333 Rocket 4.4 21:13:32 10° NW 21:15:19 16° WNW 21:15:19 16° WNW
CZ-2D R/B 4.5 21:21:47 10° NE 21:23:46 14° ENE 21:23:46 14° ENE
Cosmos 1092 Rocket 4.4 21:27:13 10° N 21:32:06 58° N 21:32:06 58° N
Cosmos 2227 Rocket 3.1 21:40:12 44° NNW 21:40:12 44° NNW 21:44:25 10° NNE
Resurs 1-4 Rocket 3.8 21:51:11 10° NE 21:54:28 25° ENE 21:54:28 25° ENE
Meteor 2-5 Rocket 4.5 21:50:13 10° N 21:54:25 49° NNE 21:54:25 49° NNE
USA 229 DEB 3.7 22:05:51 68° ENE 22:05:51 68° ENE 22:11:49 10° NE
USA 229 3.7 22:05:59 68° ENE 22:05:59 68° ENE 22:11:54 10° NE
Cosmos 2082 4.5 22:06:55 48° NNW 22:06:55 48° NNW 22:11:15 10° NNE
SL-16 R/B 3.2 22:10:36 44° E 22:11:29 47° ENE 22:17:25 10° N
Cosmos 2263 Rocket 3.2 22:17:00 37° ENE 22:17:00 37° ENE 22:21:03 10° NE
NOSS 3-1 (A) 3.8 22:17:45 53° ENE 22:17:45 53° ENE 22:22:35 10° NE
Cosmos 1655 Rocket 4.2 22:11:22 10° N 22:17:21 63° ENE 22:17:21 63° ENE
SL-16 R/B 3.5 22:14:34 10° NNW 22:17:41 32° NW 22:17:41 32° NW
Cosmos 2279 Rocket 4.1 22:24:45 66° NNW 22:24:45 66° NNW 22:30:13 10° N
ADEOS II 4.0 22:21:39 10° NE 22:25:27 20° E 22:25:41 20° E
Cosmos 1898 Rocket 4.3 22:27:31 48° N 22:27:31 48° N 22:31:21 10° NNE
Cosmos 2297 Rocket 4.0 22:32:12 20° WNW 22:32:43 20° NW 22:36:49 10° N
Cosmos 724 4.5 22:33:15 10° NNW 22:38:30 69° NNW 22:38:30 69° NNW
GEOS 3 Rocket 4.2 22:37:04 10° NE 22:41:34 51° E 22:41:34 51° E
Meteor 2-19 Rocket 4.5 22:38:25 10° NNW 22:44:00 69° NW 22:44:00 69° NW
SJ 16-02 3.4 22:47:38 20° NNW 22:47:38 20° NNW 22:49:47 10° N
IRAS Rocket 4.3 22:59:19 71° NW 22:59:19 71° NW 23:04:23 10° NNW
AQUA 4.3 22:55:50 10° NNE 22:59:51 58° NE 22:59:51 58° NE
Cosmos 1603 3.6 22:55:10 10° NNW 23:00:43 82° N 23:00:43 82° N
ATLAS CENTAUR R/B 2.9 23:04:06 33° ENE 23:04:06 33° ENE 23:06:27 10° NE
CZ-2D R/B 2.2 22:59:53 10° N 23:05:05 73° NW 23:05:05 73° NW
Cosmos 2285 Rocket 4.2 23:09:27 52° SE 23:10:29 59° ESE 23:16:40 10° NNE
IRS-1D 3.8 23:06:28 10° NNE 23:11:34 60° E 23:11:47 59° ESE
Cosmos 1455 Rocket 4.4 23:15:14 31° NW 23:15:14 31° NW 23:18:02 10° N
Cosmos 1626 Rocket 4.3 23:11:51 10° N 23:15:03 49° N 23:15:03 49° N
Cosmos 2266 Rocket 4.0 23:11:16 10° NNW 23:17:25 59° W 23:17:25 59° W
NOSS 3-1 (C) 4.5 23:16:43 29° WNW 23:18:06 32° NW 23:23:48 10° NNE
Cosmos 1943 3.0 23:12:50 10° NNW 23:18:27 82° WSW 23:18:27 82° WSW
Meteor 2-21 4.4 23:13:40 10° N 23:19:46 82° E 23:21:09 56° SSE
Cosmos 2084 3.9 23:23:52 60° NNE 23:23:52 60° NNE 23:27:36 10° NE
NPP 3.8 23:21:07 10° N 23:26:24 58° WNW 23:26:29 58° WNW
Cosmos 1932 4.4 23:20:47 10° NW 23:27:17 86° WSW 23:30:41 30° SSE
Cosmos 1703 4.1 23:27:37 10° N 23:31:27 45° ENE 23:31:37 45° E
Cosmos 2098 Rocket 4.4 23:26:21 10° NNW 23:31:59 45° W 23:32:03 45° W
SL-08 R/B 4.2 23:32:10 24° SE 23:34:55 50° ENE 23:39:41 10° N
Resurs 1-4 Rocket 2.8 23:30:39 10° N 23:35:30 39° WNW 23:35:31 39° WNW
Cosmos 1758 Rocket 4.1 23:35:16 10° N 23:39:31 54° E 23:40:31 43° SE
IDEFIX/ARIANE 42P 3.9 23:36:10 10° NNE 23:40:52 33° E 23:43:45 20° SSE
Cosmos 1048 Rocket 3.9 23:35:55 10° NNW 23:41:06 82° ENE 23:43:00 41° SSE
COBE Rocket 4.1 23:41:55 52° WNW 23:41:55 52° WNW 23:45:50 10° NNW
Cosmos 1953 3.2 23:43:41 41° NW 23:43:41 41° NW 23:46:45 10° N
Cosmos 372 Rocket 4.5 23:44:04 43° WNW 23:44:22 44° WNW 23:49:24 10° N
Cosmos 2298 Rocket 4.1 23:44:45 57° W 23:45:18 60° WNW 23:50:36 10° NNE
Cosmos 1328 4.2 23:44:01 10° N 23:48:00 61° E 23:48:33 54° ESE
Atlas Centaur 2 3.5 23:51:56 28° SSE 23:51:56 28° SSE 23:57:30 10° ESE
